User: anonymous   Login
Location: Sabalos
(43.2860°N, 0.1414°E)
Time: 22:58:14
(UTC+00:00)
Language:

Cosmos 1812 Rocket - Orbit

View from above orbital plane
View from above orbital plane
View from above satellite
View from above satellite

Ground track
Ground track

The orbit data is extracted from the following two-line orbital elements,

1 17296U 87003B   20272.48499790 +.00000099 +00000-0 +91228-5 0  9991
2 17296 082.5321 343.1935 0017964 223.6392 136.3404 14.83301532820898
Epoch (UTC): 28 September 2020 11:38:23
Eccentricity: 0.0017964
inclination: 82.5321°
perigee height: 606 km
apogee height: 631 km
right ascension of ascending node: 343.1935°
argument of perigee: 223.6392°
revolutions per day: 14.83301532
mean anomaly at epoch: 136.3404°
orbit number at epoch: 82089

The dashed part of the orbit path shows where the satellite is in the earth's shadow,  

DLR